Back to catalog

THORAD AGENA D DEB

AlivePO
NORAD 4911·DEBRIS·🇺🇸 United States

Launched Apr 8, 1970 from Vandenberg Space Force Base

Loading…

Next Passes (next 24 hours)

TLE

FreshSource: Space-Track

Epoch: Sep 14, 2026, 03:47 UTC

1 04911U 70025FH  26257.15786426  .00001747  00000-0  65227-3 0  9994
2 04911  99.9562 151.1536 0060920  64.6557 296.0914 14.32440771884339

Track THORAD AGENA D DEB in real time with AllMySat

Download on the App Store